Location: Acequia del Cap
(41.7000°N, 0.6167°E)
Time: 16:10:27
(UTC+00:00)

IDEFIX/ARIANE 42P - Pass Details

Date: 07 August 2020
Orbit: 786 x 802 km, 98.4° (Epoch: 23 September)

Event Time Altitude Azimuth Distance (km) Brightness Sun altitude
Rises 03:51:01 0° 5° (N) 3,289 6.4 -11.8°
Reaches altitude 10° 03:53:27 10° 359° (N) 2,357 5.5 -11.4°
Maximum altitude 03:58:16 40° 291° (WNW) 1,149 3.2 -10.7°
Enters shadow 04:02:43 12° 224° (SW) 2,213 4.3 -10.0°
